Location: Navalmoral
(40.4603°N, 4.7686°W)
Time: 20:48:09
(UTC+00:00)

Cosmos 2228 - Pass Details

Date: 05 August 2024
Orbit: 575 x 601 km, 82.5° (Epoch: 17 September)

Event Time Altitude Azimuth Distance (km) Brightness Sun altitude
Rises 19:59:46 0° 345° (NNW) 2,797 7.1 -6.1°
Reaches altitude 10° 20:02:01 10° 339° (NNW) 1,896 6.4 -6.5°
Maximum altitude 20:06:00 44° 267° (W) 802 4.2 -7.2°
Drops below altitude 10° 20:09:59 10° 195° (SSW) 1,894 5.4 -7.8°
Sets 20:12:14 0° 189° (S) 2,793 6.2 -8.2°
